This is the latest recevied weather packets stored in our database for station/object KD0MAC. If no packets are shown the sender has not sent any weather packets the latest 10 day(s).
| Time | Temp. | Humidity | Pressure | Rain* | Wind** | Luminosity | Snow |
|---|---|---|---|---|---|---|---|
| 1788158529 | 26.11° C | 69% | 1011.5 hPa | 0 mm | - | 0 W/m² | - |
| 1788158230 | 26.11° C | 68% | 1012.5 hPa | 0 mm | - | 0 W/m² | - |
| 1788157929 | 26.67° C | 68% | 1012.9 hPa | 0 mm | - | 0 W/m² | - |
| 1788157630 | 26.67° C | 65% | 1013.5 hPa | 0 mm | - | 0 W/m² | - |
| 1788157330 | 26.67° C | 64% | 1013.5 hPa | 0 mm | - | 0 W/m² | - |
| 1788157030 | 26.67° C | 64% | 1013.5 hPa | 0 mm | - | 0 W/m² | - |
| 1788156729 | 27.22° C | 63% | 1013.2 hPa | 0 mm | - | 0 W/m² | - |
| 1788156430 | 27.22° C | 63% | 1013.2 hPa | 0 mm | - | 0 W/m² | - |
| 1788156129 | 27.22° C | 62% | 1012.9 hPa | 0 mm | - | 0 W/m² | - |
| 1788155830 | 27.22° C | 61% | 1013.2 hPa | 0 mm | - | 0 W/m² | - |
| 1788155541 | 27.22° C | 61% | 1013.9 hPa | 0 mm | - | 0 W/m² | - |
| 1788155230 | 27.22° C | 63% | 1014.2 hPa | 0 mm | - | 0 W/m² | - |
| 1788154934 | 26.67° C | 64% | 1014.2 hPa | 0 mm | - | 0 W/m² | - |
| 1788154629 | 27.22° C | 64% | 1014.2 hPa | 0 mm | - | 0 W/m² | - |
| 1788154329 | 27.22° C | 62% | 1013.9 hPa | 0 mm | - | 0 W/m² | - |
| 1788154030 | 27.22° C | 61% | 1013.5 hPa | 0 mm | - | 0 W/m² | - |
| 1788153729 | 27.22° C | 61% | 1013.5 hPa | 0 mm | - | 0 W/m² | - |
| 1788153430 | 27.22° C | 61% | 1013.5 hPa | 0 mm | - | 0 W/m² | - |
| 1788153129 | 27.22° C | 61% | 1013.5 hPa | 0 mm | - | 0 W/m² | - |
| 1788152829 | 27.22° C | 61% | 1013.5 hPa | 0 mm | - | 0 W/m² | - |
| 1788152530 | 27.22° C | 61% | 1013.2 hPa | 0 mm | - | 0 W/m² | - |
| 1788152240 | 27.22° C | 62% | 1013.2 hPa | 0 mm | - | 0 W/m² | - |
| 1788151929 | 27.22° C | 62% | 1013.2 hPa | 0 mm | - | 0 W/m² | - |
| 1788151630 | 27.22° C | 63% | 1013.2 hPa | 0 mm | - | 0 W/m² | - |
| 1788151330 | 27.22° C | 62% | 1013.2 hPa | 0 mm | - | 0 W/m² | - |
* Rain latest hour (hover to see other rain measurements)
** Current wind speed in m/s (hover to see current wind gust speed)